Voltar ao catálogo

COSMOS 2251 DEB

AtivoVLEO
NORAD 34118·DEBRIS·🇷🇺 Russia

Lançado Jun 16, 1993 de Plesetsk Cosmodrome

Loading…

Próximas Passagens (próximas 24 horas)

TLE

AtualizadoSource: Space-Track

Época: Sep 14, 2026, 21:11 UTC

1 34118U 93036KP  26257.88288852  .00029254  00000-0  19952-2 0  9999
2 34118  73.9487  45.1768 0051059 164.9447 354.1069 15.05027830933164

Acompanhe COSMOS 2251 DEB em tempo real com AllMySat

Download on the App Store